Torna al catalogo

GEESAT 2-07

AttivoScienzaLEO
NORAD 58911·PAYLOAD·🇨🇳 China

Lanciato Feb 2, 2024 da Xichang Satellite Launch Center

Loading…

Prossimi Passaggi (prossime 24 ore)

TLE

AggiornatoSource: Space-Track

Epoca: Sep 14, 2026, 22:03 UTC

1 58911U 24023G   26257.91877442  .00000994  00000-0  14712-3 0  9999
2 58911  50.0063 299.1640 0009659  41.9181 318.2495 14.83422253142232

Traccia GEESAT 2-07 in tempo reale con AllMySat

Download on the App Store